Location: ???????
(55.4362°N, 38.1183°E)
Time: 02:41:04
(UTC+00:00)

Cosmos 1980 - Visible Passes

Search period start: 10 December 2022 00:00
Search period end: 20 December 2022 00:00
Orbit: 839 x 846 km, 71.0° (Epoch: 09 December)

Date Brightness Start Highest point End Pass type
(mag) Time Alt. Az. Time Alt. Az. Time Alt. Az.
10 Dec 6.4 04:42:41 10° SSE 04:47:02 23° ESE 04:51:23 10° NE visible
10 Dec 5.0 15:11:50 10° NW 15:17:10 43° WSW 15:22:26 10° S visible
11 Dec 6.4 04:28:07 10° SSE 04:32:23 22° ESE 04:36:39 10° NE visible
11 Dec 4.9 14:57:08 10° NW 15:02:29 44° WSW 15:07:48 10° S visible
12 Dec 6.5 04:13:33 10° SSE 04:17:44 22° ESE 04:21:55 10° NE visible
12 Dec 4.9 14:42:27 10° NW 14:47:50 46° WSW 14:53:11 10° S visible
13 Dec 6.5 03:59:00 10° SSE 04:03:05 21° ESE 04:07:11 10° NE visible
13 Dec 4.9 14:27:45 10° NW 14:33:11 47° WSW 14:38:32 10° S visible
14 Dec 6.5 03:44:27 10° SE 03:48:27 20° E 03:52:27 10° NE visible
14 Dec 4.8 14:13:05 10° NW 14:18:31 49° WSW 14:23:55 10° S visible
15 Dec 6.5 03:29:54 10° SE 03:33:48 19° E 03:37:42 10° ENE visible
15 Dec 4.8 13:58:23 10° NW 14:03:51 51° WSW 14:09:17 10° S visible
15 Dec 7.2 15:45:46 10° W 15:46:37 10° W 15:47:29 10° WSW visible
16 Dec 6.6 03:15:22 10° SE 03:19:09 19° E 03:22:58 10° ENE visible
16 Dec 3.9 04:56:45 10° SSW 05:02:25 81° ESE 05:08:07 10° NE visible
16 Dec 4.7 13:43:42 10° NW 13:49:11 53° WSW 13:54:39 10° S visible
16 Dec 7.1 15:30:38 10° W 15:32:00 11° W 15:33:21 10° WSW visible
17 Dec 6.6 03:00:51 10° SE 03:04:31 18° E 03:08:12 10° ENE visible
17 Dec 3.9 04:42:06 10° SSW 04:47:45 79° ESE 04:53:27 10° NE visible
17 Dec 7.0 15:15:39 10° WNW 15:17:22 11° W 15:19:04 10° WSW visible
18 Dec 6.6 02:46:20 10° SE 02:49:53 17° E 02:53:27 10° ENE visible
18 Dec 4.0 04:27:25 10° SSW 04:33:05 76° ESE 04:38:46 10° NE visible
18 Dec 7.0 15:00:44 10° WNW 15:02:44 12° W 15:04:44 10° WSW visible
19 Dec 6.6 02:31:49 10° SE 02:35:15 17° E 02:38:41 10° ENE visible
19 Dec 4.0 04:12:45 10° SSW 04:18:24 74° ESE 04:24:05 10° NE visible
19 Dec 6.9 14:45:52 10° WNW 14:48:06 12° W 14:50:20 10° WSW visible
